Wind_Speed
7 7 7 7 6 6 5 5 5 5 5 5 5 5 5 6 6 7 7 8 8 8 9 9 10 10 11 11 12 12 13 14 14 15 17 14 11 11 10 9 7 6 5 4 3 3 4 5 6 6 6 6 5 5 5 7 8 4 2 2 3 3 4 5 7 5 3 4 5 6 11 9 6 8 9 8 11 16 15 17 18 19 21 24 24 21 18 14
8 8 8 8 7 6 6 5 5 4 4 4 4 4 5 5 6 6 7 7 8 8 8 9 10 10 11 11 12 13 14 14 16 17 15 12 12 13 13 12 10 8 6 5 4 3 4 5 6 6 7 6 5 4 4 6 9 7 3 2 5 5 6 6 7 5 2 5 7 8 12 11 10 9 6 6 10 13 12 15 18 20 23 25 27 26 24 22
10 9 9 8 8 7 7 6 5 5 5 4 4 5 4 5 5 6 6 7 8 8 8 10 10 10 11 11 12 13 14 16 16 13 8 4 5 7 11 13 11 9 8 6 5 4 5 6 6 5 7 7 6 6 5 5 8 8 4 2 7 8 6 10 12 13 12 11 8 8 9 11 14 12 6 6 10 11 11 15 15 20 27 28 28 28 26 25
11 10 10 9 9 8 8 7 6 6 5 5 5 5 6 6 6 6 7 7 8 9 9 10 10 11 11 12 13 12 15 15 10 4 1 2 8 10 7 10 12 10 9 8 7 6 6 7 6 5 6 7 7 8 6 8 8 5 6 5 7 5 5 15 18 19 18 12 9 8 5 8 15 14 10 7 7 10 16 22 22 23 28 28 29 30 28 28
12 12 11 10 10 10 9 9 8 8 7 7 7 7 7 7 7 7 8 8 9 10 10 10 11 12 12 13 12 12 13 8 4 5 6 9 13 12 8 6 11 11 11 10 9 8 8 8 7 6 6 6 5 5 6 13 12 4 8 13 13 6 4 16 18 16 16 11 11 8 5 10 12 10 14 12 7 16 23 23 24 24 24 24 25 27 29 30
13 13 13 12 12 12 11 11 10 9 9 9 9 9 9 10 10 10 10 11 11 12 12 11 12 12 13 13 13 12 7 3 8 13 13 12 12 10 7 5 8 11 12 12 11 10 10 9 9 8 6 4 5 7 7 13 13 6 8 13 19 15 11 20 20 17 18 13 12 10 12 15 10 9 15 17 21 33 38 29 26 26 21 19 21 24 27 30
15 15 14 14 13 14 13 13 12 12 11 11 11 11 11 12 12 12 13 12 13 14 14 14 13 13 14 14 14 12 8 9 14 12 10 10 10 10 7 6 6 11 13 14 14 13 12 12 11 9 4 3 5 8 8 9 11 9 7 8 17 20 20 27 25 21 20 17 17 15 14 14 11 11 10 18 34 45 43 34 31 30 24 20 22 24 26 28
16 16 16 16 15 15 15 15 15 14 14 14 13 13 13 14 14 15 15 14 15 15 16 16 15 15 14 15 16 13 12 13 12 8 9 11 12 11 9 7 7 11 14 15 16 15 15 14 13 10 4 4 6 6 6 7 7 9 9 9 12 16 20 26 22 21 20 19 20 15 15 18 18 14 11 25 45 50 42 35 33 32 28 25 26 29 29 31
17 17 17 17 17 17 17 17 17 17 16 16 16 15 15 16 16 16 17 17 17 17 18 17 17 17 15 16 15 12 15 15 11 10 12 13 14 12 10 10 8 10 13 16 17 16 17 16 15 12 7 7 7 7 5 4 5 8 11 11 10 13 19 23 21 23 21 20 17 10 16 23 21 14 15 35 48 46 39 34 33 31 32 33 33 35 35 36
18 18 18 18 17 18 18 18 18 18 18 18 18 17 17 17 17 18 18 18 18 19 19 18 18 17 16 17 11 7 15 16 12 14 15 15 15 13 13 12 11 11 13 16 19 20 20 17 15 12 10 8 6 7 5 5 6 6 8 11 14 15 20 24 21 24 21 17 16 11 15 23 17 6 12 38 43 34 31 29 27 25 30 34 36 39 39 39
19 19 19 19 18 19 19 19 19 19 20 20 19 19 19 19 19 19 20 20 20 20 20 20 19 18 17 17 12 12 19 19 16 19 19 17 17 15 15 13 14 13 14 17 20 21 22 19 14 9 6 5 5 6 6 8 8 8 8 11 17 14 18 25 20 20 15 11 17 15 14 19 8 5 19 40 39 29 26 26 24 22 26 30 32 36 38 40
20 20 20 19 19 19 20 20 20 21 21 21 21 21 20 21 21 21 21 21 21 21 21 20 19 18 17 18 22 22 23 22 20 21 19 19 19 18 17 16 16 15 15 18 19 21 21 20 17 13 9 5 2 2 4 7 6 8 6 6 16 10 13 28 20 15 10 7 14 9 6 12 5 12 32 40 37 31 28 30 32 30 32 33 33 35 36 39
21 20 21 20 19 20 20 20 20 21 21 22 22 21 21 22 21 22 22 21 21 21 21 19 18 18 15 19 28 27 23 23 23 22 21 21 22 21 20 19 17 16 17 18 19 20 20 20 19 17 15 9 4 4 6 7 6 8 3 1 10 8 9 23 11 5 8 6 10 9 2 11 8 21 36 36 35 30 26 33 38 37 38 37 36 36 38 39
21 21 21 21 20 20 20 20 20 20 20 21 21 21 21 21 20 21 21 21 21 20 20 18 17 16 14 20 28 27 24 25 25 24 23 22 23 23 23 21 19 18 18 18 19 19 19 17 16 15 15 13 11 10 8 7 5 4 1 0 4 3 9 16 2 5 4 4 13 12 3 11 12 20 29 29 30 25 25 33 37 38 39 39 38 38 39 39
20 21 21 21 20 20 21 20 21 21 21 21 20 20 20 20 20 21 20 20 20 19 19 17 16 13 12 19 26 24 23 24 24 23 21 21 22 23 22 19 18 18 17 18 19 19 17 14 12 10 9 12 12 8 4 4 3 1 2 4 2 4 9 14 7 7 8 5 13 12 3 10 14 22 28 25 24 20 23 32 35 36 38 39 40 39 39 39
19 19 20 20 20 21 21 21 22 22 22 22 21 21 21 21 21 21 21 21 19 18 17 15 15 12 7 13 20 21 23 24 22 22 21 21 22 22 20 17 16 16 17 17 18 17 15 11 10 8 6 7 6 2 3 4 5 2 4 6 5 5 4 8 10 7 11 5 7 9 6 6 10 21 27 21 20 21 21 28 34 36 37 38 39 40 41 41
16 17 18 18 19 20 21 21 22 23 24 23 23 23 22 23 23 22 22 20 18 16 14 11 11 10 9 13 19 22 23 20 19 18 19 20 22 22 20 18 15 15 15 14 15 12 10 9 7 5 5 5 2 5 2 3 7 5 3 5 6 6 3 3 9 7 6 6 6 10 10 11 13 18 25 18 15 16 18 25 31 33 36 36 38 40 42 43
14 15 15 16 17 18 19 20 21 22 23 24 24 24 23 23 23 22 20 18 13 8 8 9 7 4 8 14 15 17 17 15 15 15 16 18 20 20 18 16 14 13 11 9 10 8 8 7 5 1 3 4 2 5 4 9 10 7 5 4 4 5 6 6 8 4 1 4 8 8 10 15 16 17 25 28 22 17 20 26 30 33 35 35 36 38 41 43
14 14 14 14 15 16 17 18 19 20 22 23 22 22 22 19 17 16 14 11 8 4 4 9 10 4 6 9 11 14 16 18 18 16 17 18 19 18 16 14 12 11 8 4 5 10 11 4 4 3 4 8 8 7 12 16 13 9 6 5 4 6 7 7 10 7 3 7 9 10 13 15 16 17 21 32 32 25 26 28 29 33 36 37 38 41 45 48
13 13 12 13 14 14 15 16 17 18 20 20 19 18 15 10 7 7 8 11 13 12 13 14 16 16 16 16 18 20 21 22 20 17 17 18 17 15 16 13 8 8 7 5 4 9 12 5 3 8 11 14 11 11 16 16 10 8 5 6 7 8 9 9 12 11 5 6 9 11 16 17 17 17 17 28 31 24 23 24 27 32 35 38 40 44 48 50
11 10 10 11 11 12 13 15 15 15 16 17 17 14 8 4 3 5 8 12 18 20 23 24 23 25 26 25 26 25 23 20 19 19 17 17 16 12 14 12 6 4 6 6 3 3 7 7 9 14 16 14 10 9 12 11 9 10 7 8 9 8 12 13 12 12 5 5 9 10 16 19 16 15 16 21 21 19 22 22 26 32 34 37 40 45 49 50
11 10 9 8 9 11 11 13 14 13 14 14 14 12 8 6 6 8 9 11 19 22 23 26 27 31 31 29 31 29 23 16 18 22 19 18 19 14 11 11 6 3 5 6 2 1 4 7 12 17 14 8 4 4 7 9 9 9 6 7 8 6 11 12 10 13 6 4 8 10 14 18 15 15 15 16 17 23 31 31 33 35 31 35 40 44 48 48
11 11 9 7 8 9 10 11 11 12 12 11 12 13 11 10 9 10 8 6 15 20 22 27 28 31 32 31 33 32 25 19 18 21 22 22 21 16 11 9 6 2 5 7 7 6 6 7 14 18 10 5 7 5 5 6 5 7 6 6 8 7 8 9 7 8 5 4 7 9 12 14 12 12 11 16 25 30 34 37 39 38 33 37 43 44 46 48
11 11 9 8 7 8 9 9 9 12 12 10 14 14 12 11 10 12 10 5 8 13 20 26 24 24 28 26 24 26 24 20 16 15 21 25 20 13 10 8 5 3 5 10 12 13 11 6 11 13 9 9 11 9 6 4 7 9 8 7 10 12 12 12 6 6 6 5 5 7 13 13 10 13 11 14 23 25 28 31 33 38 39 41 44 44 48 53
12 12 11 9 7 8 9 8 8 11 10 10 15 14 12 11 9 11 10 4 5 7 11 15 15 15 18 16 13 14 15 16 18 15 17 24 22 11 5 7 7 5 8 10 10 13 12 7 7 7 7 11 11 9 7 7 10 10 8 12 18 17 14 14 10 8 7 6 3 2 10 11 6 11 12 8 11 14 17 19 24 35 40 40 42 47 52 55
14 13 13 11 9 9 9 7 7 10 9 10 15 14 11 9 8 10 7 3 4 4 2 5 6 5 7 8 8 9 4 7 16 18 16 20 25 16 4 5 6 5 7 7 5 6 6 9 10 9 9 11 9 7 7 10 10 11 7 14 18 14 11 12 9 5 3 6 3 4 3 10 5 6 8 7 8 11 12 12 18 30 36 36 41 48 51 51
16 16 15 14 12 11 10 8 7 8 8 10 14 14 9 7 7 8 5 3 4 2 4 4 4 2 3 6 11 11 2 3 5 11 16 17 20 17 8 4 3 4 5 4 4 3 4 7 10 10 9 8 7 8 9 12 9 8 4 10 11 10 9 7 5 5 4 4 4 4 5 8 13 7 9 11 11 11 12 13 16 24 30 35 41 47 48 49
17 18 18 16 15 14 12 10 8 7 7 9 13 11 6 5 6 6 3 3 4 3 4 2 3 1 3 8 14 8 1 0 2 3 11 14 15 12 7 6 5 4 3 5 6 4 4 5 9 10 7 5 7 10 10 12 9 6 4 7 6 6 6 4 5 5 2 4 5 4 7 3 15 7 8 10 11 10 14 17 17 18 26 35 40 46 47 46
17 18 19 18 17 17 15 12 8 5 5 7 10 8 4 3 4 5 2 3 2 3 2 2 3 1 1 7 8 2 3 2 2 1 5 9 12 7 2 4 4 4 3 5 8 6 1 2 4 7 6 6 9 8 8 14 10 4 6 5 4 3 2 4 3 2 2 6 6 5 7 3 14 8 5 4 6 9 13 15 14 16 25 33 36 41 44 43
19 18 18 19 21 20 17 15 10 5 5 5 7 6 2 1 3 3 3 5 1 1 1 2 2 1 4 4 2 4 2 2 3 3 3 3 7 5 1 0 2 2 4 4 7 10 7 1 2 4 7 6 4 2 4 9 7 1 4 2 5 5 4 4 1 4 2 9 6 9 11 6 8 6 4 4 5 6 8 9 10 14 22 31 35 39 41 39
20 19 18 20 22 20 19 18 11 7 7 6 7 5 1 2 4 3 7 3 1 1 1 1 1 3 4 3 2 3 1 2 0 5 3 2 2 2 1 0 1 2 3 5 7 10 8 3 2 5 8 5 4 1 1 0 1 2 2 1 4 5 4 5 4 4 1 10 5 11 13 10 9 6 1 5 5 3 6 8 10 12 17 29 36 39 37 34
21 20 18 18 20 20 21 21 14 11 11 10 8 2 3 1 1 6 5 4 2 2 1 1 1 2 2 1 2 3 1 2 2 4 3 2 2 3 3 4 3 1 4 4 4 6 5 8 7 3 6 9 6 3 3 5 2 4 3 3 0 4 3 3 4 1 4 9 6 8 9 8 11 7 3 9 11 8 8 10 13 13 16 27 35 36 33 31
20 20 18 17 19 21 23 22 19 15 13 12 9 3 5 1 5 6 3 0 3 2 3 2 2 3 4 2 3 3 1 3 3 3 1 2 2 3 5 5 5 1 4 3 2 4 4 6 4 3 4 10 10 5 3 2 4 6 5 6 5 3 3 4 4 2 5 8 6 5 6 5 8 5 7 11 12 11 8 10 18 20 22 28 33 34 30 29
17 18 19 18 18 20 21 21 21 18 14 11 7 4 4 4 4 0 2 5 4 2 3 2 1 2 4 3 5 3 2 3 2 3 1 2 1 3 4 6 6 3 2 2 2 2 4 9 4 6 3 8 12 12 11 5 4 6 5 5 6 6 5 4 4 6 7 6 5 1 4 5 4 2 7 9 8 11 11 14 19 20 25 30 34 37 36 32
16 15 17 17 18 19 18 19 19 16 14 10 5 3 3 6 3 1 2 5 3 3 3 3 2 0 2 3 4 3 4 3 2 3 1 2 2 3 3 4 8 6 3 2 3 2 4 9 5 3 3 9 11 13 11 4 1 4 4 4 5 6 5 4 7 8 5 3 4 3 4 6 4 6 7 5 6 9 13 16 15 17 25 29 31 37 40 36
13 13 14 17 20 19 17 18 15 14 14 11 5 1 6 5 2 3 2 1 1 2 4 6 2 0 4 2 2 1 2 3 1 2 1 3 3 4 4 4 7 10 8 5 3 2 5 7 4 2 3 7 8 7 7 6 3 1 3 4 4 3 6 5 8 5 2 5 6 5 8 6 4 8 5 3 6 7 8 10 9 14 22 24 26 31 36 37
11 11 13 18 18 16 17 17 14 16 17 12 5 5 5 4 5 5 2 1 1 1 2 3 1 1 2 2 3 2 0 1 2 2 1 2 2 4 5 4 6 12 14 9 3 4 6 8 7 7 8 6 2 1 1 4 7 5 3 6 2 3 2 3 3 2 4 8 6 7 15 10 4 7 6 7 9 8 8 8 8 11 15 18 22 26 29 33
10 10 15 19 17 14 15 15 16 21 18 9 6 9 5 4 6 6 3 3 2 1 2 2 2 1 2 3 3 3 1 2 1 2 2 2 3 6 6 3 3 6 9 7 2 2 2 5 8 6 5 4 3 1 3 3 4 5 3 3 2 1 2 2 3 3 7 9 5 7 15 12 6 7 7 6 7 7 8 7 7 9 9 11 18 21 23 25
8 9 13 16 15 14 14 15 22 24 14 5 7 8 4 3 6 7 7 5 2 2 2 5 4 2 4 5 3 1 2 3 2 1 3 3 4 6 5 2 2 2 3 3 3 3 0 3 7 3 2 4 3 1 4 3 2 1 1 1 0 3 4 4 3 3 5 9 7 8 10 9 6 6 6 8 8 7 6 4 6 8 8 13 17 20 19 19
9 7 9 10 8 10 15 20 25 21 8 3 7 6 2 2 5 9 11 8 4 3 4 4 5 5 4 5 5 3 3 5 4 3 4 4 4 4 3 2 2 2 2 5 2 4 0 4 6 3 3 3 2 3 5 3 1 1 3 4 3 2 1 1 2 3 4 7 7 7 8 7 6 4 6 9 7 8 5 3 5 8 7 12 14 13 12 11
12 7 8 9 8 14 21 21 16 10 3 4 5 4 3 3 4 6 12 14 10 8 6 4 5 6 5 6 6 4 3 4 5 6 4 4 6 5 6 8 7 4 2 3 2 2 1 2 3 3 5 5 6 5 5 5 4 4 5 5 5 6 4 5 6 5 4 5 6 7 8 6 6 6 6 7 8 8 6 4 5 9 9 8 10 8 5 5
13 7 7 11 13 21 25 15 6 5 4 4 5 5 4 4 4 5 9 13 12 8 7 5 5 6 5 6 6 5 4 4 6 6 5 7 10 8 8 13 12 7 3 3 4 4 4 2 3 5 6 7 11 10 6 7 7 6 5 5 6 5 5 6 8 6 4 5 5 7 9 6 7 14 14 10 9 9 10 10 8 10 13 13 14 12 9 9
14 11 9 11 16 25 22 6 4 7 3 4 6 5 6 5 4 5 6 8 8 6 5 4 5 8 7 6 8 6 5 5 7 8 7 6 9 15 19 20 16 8 2 2 4 4 5 3 4 6 5 6 11 14 11 7 6 6 6 6 7 7 7 8 7 4 5 6 6 8 11 7 8 15 17 13 12 11 14 15 10 9 15 17 19 20 17 16
11 12 11 10 15 23 16 3 5 7 4 4 4 4 7 6 6 9 6 5 6 5 4 4 6 8 8 7 8 8 7 7 8 10 9 5 6 17 26 27 21 9 4 5 4 4 4 2 3 5 5 5 7 8 10 7 5 5 5 6 9 11 11 9 4 2 5 10 11 12 11 7 8 13 13 14 17 15 16 19 14 11 16 20 23 26 26 26
5 8 11 13 20 25 18 11 9 6 5 8 6 6 7 5 9 17 13 8 9 7 3 4 5 6 7 7 8 8 9 8 7 7 7 5 4 9 16 23 20 11 11 14 9 4 5 4 4 6 8 9 9 7 8 6 3 3 4 6 9 11 12 10 6 5 8 11 14 13 11 10 10 12 13 17 23 22 21 22 16 12 17 21 24 28 32 36
2 4 7 11 22 26 23 21 16 6 5 8 6 7 10 8 9 14 13 10 13 12 7 5 6 5 4 6 8 9 9 10 8 6 4 4 4 3 8 16 17 16 20 21 14 6 1 3 8 12 13 12 13 12 8 4 3 5 6 9 10 8 9 7 6 8 10 11 12 12 13 15 13 12 16 20 22 23 23 19 12 13 20 24 27 30 32 36
3 3 3 4 12 17 18 19 16 7 6 8 4 4 11 11 7 8 11 10 12 13 9 7 10 9 7 8 9 9 9 10 9 9 9 8 6 7 12 13 13 18 20 15 13 8 1 5 12 17 19 18 18 20 17 13 13 14 15 16 16 12 10 9 10 12 10 10 12 13 14 17 14 12 19 22 22 22 21 17 14 18 25 28 32 33 32 34
4 3 5 3 3 7 8 11 13 10 9 10 7 5 10 11 8 6 7 7 9 10 6 5 11 14 13 12 9 8 9 10 10 10 8 7 6 7 11 11 9 14 13 7 9 8 3 6 12 16 20 21 21 23 23 20 19 18 18 19 19 18 17 16 18 18 14 14 15 15 17 19 16 15 19 21 20 19 19 23 28 32 34 36 37 35 34 38
6 5 6 4 3 5 5 2 3 7 8 7 5 7 11 13 12 9 5 4 5 7 8 8 7 7 6 4 3 4 7 7 6 5 1 3 4 3 5 8 6 7 7 3 5 5 4 6 12 16 19 20 20 21 22 22 21 20 20 20 20 21 22 23 23 22 21 22 21 20 23 24 19 18 19 21 22 23 25 32 37 38 41 43 42 39 37 39
6 4 5 5 5 8 9 4 2 2 4 5 5 6 9 11 13 10 5 5 3 2 5 5 2 2 1 0 1 4 4 1 1 2 2 4 4 1 1 3 5 9 10 6 4 4 4 6 10 14 14 14 17 19 20 21 22 22 22 21 20 23 24 23 22 20 21 23 24 24 25 21 18 20 23 25 28 28 25 27 32 38 43 44 38 32 29 30
10 7 5 6 4 5 6 4 2 2 3 5 5 4 4 6 7 3 1 6 8 3 2 2 4 3 1 3 4 3 2 2 4 7 7 5 6 6 4 4 6 8 9 6 4 3 3 4 6 8 9 9 12 16 19 19 20 21 21 22 23 24 23 21 20 20 20 21 22 22 19 15 16 20 21 22 23 21 19 22 28 33 33 28 23 23 26 29
11 11 8 5 4 5 5 1 0 3 4 4 3 1 3 4 2 4 2 5 7 6 7 7 4 4 3 5 5 3 3 6 10 13 15 15 16 17 16 15 13 9 6 6 5 4 4 4 5 6 7 8 9 13 15 14 13 12 15 21 26 25 22 21 20 20 20 18 17 16 13 10 10 10 11 13 14 12 14 16 15 18 23 25 25 25 28 32
Wind_Direction
309 313 313 315 319 322 328 335 341 350 359 7 15 21 24 24 24 22 19 17 15 11 7 2 356 350 345 338 332 323 314 309 304 295 289 290 280 268 267 269 267 271 287 280 269 232 208 182 182 190 194 206 227 232 216 214 206 195 125 147 232 204 208 200 194 214 172 254 273 232 227 213 241 253 242 255 245 246 247 237 233 233 233 239 246 250 254 251
302 304 304 307 308 309 313 316 322 330 338 346 357 4 10 15 12 13 11 8 6 4 3 358 354 350 347 344 340 332 323 315 305 297 295 292 270 261 260 262 265 265 272 274 269 247 209 169 175 199 206 222 237 225 216 212 201 189 140 160 226 205 215 214 207 227 224 271 273 251 238 220 236 255 247 252 252 248 249 244 237 236 237 238 244 246 250 251
297 298 299 299 299 301 301 302 307 308 316 323 331 339 347 354 354 357 355 352 352 351 350 348 346 343 343 342 340 336 331 323 311 302 298 304 300 279 260 253 253 255 255 255 257 248 220 188 181 202 217 231 232 222 217 199 200 205 184 207 241 219 239 260 251 257 270 276 272 263 247 228 241 253 242 243 266 263 243 242 234 235 244 243 242 243 246 247
293 294 294 295 294 293 292 293 294 294 301 304 312 319 320 329 332 334 334 335 335 334 336 336 335 335 335 336 336 335 335 329 318 324 73 30 355 339 303 255 241 242 240 238 242 239 228 208 204 219 222 230 228 223 220 203 202 200 184 207 240 204 231 261 260 264 271 274 266 264 251 245 255 251 237 244 286 275 246 246 244 243 256 257 247 245 245 244
292 293 293 293 291 290 289 287 286 287 289 291 297 301 305 311 313 315 318 318 319 321 324 324 326 326 326 329 329 330 342 346 337 352 325 311 323 326 328 271 234 228 231 229 230 228 225 215 218 224 220 229 212 207 230 216 204 190 215 227 239 212 224 263 266 271 274 273 265 261 256 267 268 245 236 232 237 264 264 264 263 259 266 267 258 252 248 244
293 293 293 293 292 291 289 286 285 284 284 285 288 290 296 300 303 305 305 308 310 310 313 315 319 319 320 322 319 320 331 312 312 324 314 310 320 321 323 287 237 224 226 224 226 226 223 217 215 216 214 232 203 197 236 225 207 224 248 236 246 241 243 266 268 271 277 273 262 260 267 270 267 259 251 234 240 266 276 275 273 273 272 266 258 253 248 246
294 293 294 294 294 292 291 289 287 285 284 283 284 286 291 294 296 298 299 302 303 304 307 309 312 313 316 315 313 311 284 280 309 317 314 323 328 325 320 297 252 230 226 223 225 223 223 218 215 218 213 250 227 214 245 244 210 222 258 245 253 251 248 263 267 269 273 270 268 271 273 264 253 266 266 252 261 273 278 275 271 271 269 258 249 248 249 251
294 293 294 295 295 294 292 291 289 287 285 284 284 286 288 291 292 292 294 295 297 299 299 302 306 308 312 310 310 305 279 289 311 309 308 318 317 318 316 299 268 242 233 228 229 227 228 222 219 223 214 239 237 224 251 271 219 209 246 254 256 257 256 266 271 271 271 272 276 277 266 257 252 264 271 265 273 278 277 276 272 266 260 251 248 250 251 254
295 294 294 295 294 294 293 292 291 289 286 285 286 286 288 289 290 291 291 291 293 294 294 297 299 300 304 301 303 299 284 295 309 302 303 307 305 304 299 292 274 253 241 234 231 229 230 227 229 230 233 246 240 239 233 250 237 208 235 257 265 269 273 278 277 274 275 275 275 266 264 265 259 265 274 268 273 280 279 277 276 267 257 252 250 252 253 255
294 294 294 294 294 294 292 292 292 290 289 288 288 289 290 289 290 291 291 291 291 292 293 293 294 296 295 292 287 270 282 293 298 299 303 300 295 290 287 284 271 259 245 237 232 230 231 232 236 232 243 258 242 242 216 208 251 250 264 278 278 280 284 283 275 274 278 277 265 236 258 270 260 239 265 271 274 278 280 279 278 269 261 257 254 254 255 256
294 295 295 294 294 293 291 291 290 290 289 289 290 291 291 291 292 292 292 292 292 293 292 292 294 291 289 285 257 247 280 290 291 295 296 293 288 282 280 274 267 261 247 241 235 235 235 232 232 222 235 256 245 252 239 240 263 290 313 311 291 294 296 282 268 270 274 277 260 229 252 272 255 191 244 265 274 275 277 281 278 269 265 264 260 258 257 256
298 299 298 297 297 295 292 292 290 289 288 289 290 290 291 291 292 293 293 293 293 293 292 291 291 286 286 278 261 265 283 287 287 289 288 287 285 278 272 265 263 258 251 248 241 239 237 232 228 220 228 241 266 292 253 261 296 304 326 331 295 317 311 282 272 264 248 256 258 211 259 277 208 221 246 261 271 269 271 276 276 272 269 269 266 262 259 260
298 300 300 299 300 299 297 296 293 291 289 289 289 289 290 290 291 292 291 292 293 292 292 291 287 283 276 269 272 279 285 285 284 284 282 282 280 275 269 264 260 254 251 250 246 244 238 234 229 226 236 240 247 265 268 295 317 301 320 56 290 334 305 277 278 243 223 234 230 167 233 273 234 236 249 265 269 264 267 270 274 275 273 271 269 266 263 263
295 296 297 297 299 299 299 299 297 294 293 291 291 291 291 290 290 290 290 291 291 291 292 290 283 274 259 265 279 283 282 282 282 281 282 279 275 272 267 263 262 257 252 247 244 243 237 234 230 230 239 241 251 268 288 316 314 290 313 159 279 311 271 275 332 128 219 237 191 166 221 263 265 256 254 267 267 259 260 265 271 274 274 274 271 269 267 265
293 294 295 296 297 298 299 299 298 297 296 295 294 294 293 292 292 291 291 290 290 290 288 283 275 263 250 266 277 280 279 278 280 284 282 275 270 268 266 264 262 258 252 245 241 239 236 231 226 228 238 246 253 269 317 339 328 8 231 269 252 204 258 289 310 182 216 241 176 166 236 254 266 269 263 266 263 254 251 260 268 270 272 272 271 270 269 267
296 297 296 298 298 298 299 299 299 298 298 297 297 297 296 296 294 293 293 292 292 287 279 274 264 248 237 270 275 274 275 276 281 284 276 271 266 262 262 262 260 254 247 242 239 237 236 230 227 231 238 250 238 164 34 346 313 308 206 242 246 223 253 304 305 231 207 209 177 196 232 249 261 269 269 264 254 248 242 254 263 265 268 268 268 269 268 268
302 301 301 302 300 300 301 300 300 300 299 299 299 298 298 298 296 295 295 294 291 281 267 258 250 238 238 264 270 271 275 278 283 282 275 272 264 259 256 254 252 247 240 237 237 231 221 213 208 231 245 248 168 108 57 279 264 269 199 230 249 236 222 264 300 290 201 181 211 227 229 242 250 264 271 263 249 245 237 250 261 264 266 265 267 268 267 269
313 311 310 307 304 304 304 303 303 301 300 302 302 301 301 300 298 296 293 289 283 269 249 221 199 218 250 251 260 272 282 285 285 285 281 269 255 252 248 246 245 235 225 227 229 202 190 199 176 190 284 248 192 133 192 232 237 242 213 222 255 241 232 240 268 289 191 222 228 231 236 244 253 264 270 266 261 254 248 255 262 265 266 265 265 265 267 270
322 323 321 317 314 312 311 309 308 305 303 303 305 305 304 302 298 292 284 269 244 216 232 208 189 204 253 247 262 276 281 283 283 280 273 259 245 241 235 235 230 208 190 186 209 181 176 164 114 164 239 234 220 180 211 232 237 244 232 217 228 241 243 238 252 250 232 262 242 230 246 246 250 256 261 266 265 261 259 261 262 264 265 264 263 263 265 268
325 326 327 325 324 323 322 319 317 314 309 306 308 311 306 302 301 288 265 245 241 248 258 244 231 242 253 259 267 271 271 272 271 265 260 249 236 228 221 217 200 191 185 156 181 188 178 164 157 201 218 227 225 204 221 240 253 267 261 247 245 251 263 252 260 264 217 246 246 229 248 250 246 249 250 261 266 267 264 262 259 259 260 261 261 263 264 266
329 326 327 329 330 332 331 330 328 324 322 318 318 323 318 306 301 290 285 269 265 264 263 262 254 250 256 260 260 260 261 262 260 253 249 238 222 213 211 200 167 193 200 161 156 178 173 190 210 214 220 227 227 212 225 242 252 258 252 262 264 253 265 260 261 272 228 218 257 240 254 259 249 249 249 255 264 265 261 260 258 256 256 258 259 262 264 267
329 324 328 331 334 338 338 338 334 332 334 331 328 336 338 326 302 290 300 286 277 274 266 266 258 251 256 259 254 252 251 254 252 242 235 223 210 204 196 181 178 199 165 158 199 233 195 218 224 223 228 239 253 210 221 239 238 244 245 261 267 254 273 270 252 262 243 197 263 258 258 263 255 250 248 248 253 257 258 258 259 258 255 255 257 260 264 267
321 321 325 329 337 342 346 345 339 339 339 338 344 347 342 334 323 314 315 283 280 281 270 265 258 253 258 258 251 245 239 240 247 241 232 219 203 200 195 171 184 173 139 183 212 223 227 227 227 229 230 237 257 235 217 260 251 226 226 245 261 251 263 267 246 258 254 204 261 275 268 267 264 259 248 241 246 253 258 258 260 261 256 254 256 259 263 266
309 312 313 320 332 338 349 350 348 349 344 351 357 350 345 338 333 336 329 281 275 279 268 265 259 255 257 257 251 241 234 234 243 244 233 218 197 195 209 183 173 178 188 205 215 234 245 228 218 218 208 212 237 239 216 261 265 230 208 218 249 247 243 251 270 307 296 257 259 289 286 275 247 249 251 238 243 251 257 258 262 261 258 257 258 259 261 264
296 299 303 310 317 324 339 343 349 355 351 358 357 349 351 347 338 347 343 310 280 274 263 261 256 252 251 254 251 232 227 233 239 240 232 220 206 197 201 181 185 210 208 211 226 248 253 234 209 193 195 210 222 232 205 205 257 256 202 208 238 247 249 257 280 315 308 279 267 289 291 284 206 220 245 238 238 250 252 253 258 259 259 258 258 259 260 262
289 290 293 297 301 309 322 327 341 354 357 359 356 354 357 356 354 351 352 350 287 269 219 224 233 244 238 235 219 186 186 247 237 229 222 219 214 208 195 172 194 219 191 195 237 257 242 218 206 194 200 206 208 232 210 190 242 272 213 207 233 247 255 256 266 286 264 267 278 116 265 284 260 215 235 233 230 244 249 250 252 254 256 255 255 259 261 262
283 285 285 287 290 293 304 316 327 348 360 358 357 356 353 1 8 1 4 344 287 212 149 187 194 217 237 196 174 160 169 266 220 213 207 207 209 207 214 195 187 223 168 143 270 248 182 201 210 208 204 194 194 230 215 182 216 268 209 191 215 235 248 233 218 230 232 283 288 147 149 273 281 250 201 214 221 232 244 246 248 250 252 252 253 257 261 264
276 278 276 276 279 281 289 301 313 345 358 354 355 354 360 14 4 19 45 295 280 124 124 196 168 219 247 176 173 165 8 324 106 201 198 197 199 195 222 220 179 225 171 149 245 246 141 189 217 206 197 197 207 221 198 168 204 252 152 152 177 202 221 169 164 216 271 339 289 197 138 251 283 265 170 203 217 217 234 238 243 246 247 248 250 255 260 265
268 270 269 270 273 275 279 284 293 327 338 349 356 351 10 13 356 40 85 254 290 82 99 191 178 318 60 155 188 248 7 25 34 168 170 189 197 180 229 233 193 259 268 195 237 264 176 191 198 171 180 219 223 225 182 170 206 231 118 105 74 84 80 97 138 140 44 307 267 195 147 215 283 288 123 172 211 211 227 230 239 244 244 248 252 256 260 265
262 264 264 262 266 270 276 280 283 298 305 333 346 341 3 8 35 66 227 243 333 6 122 148 210 359 72 112 284 308 315 340 22 122 125 155 195 191 81 304 161 238 283 273 260 260 252 278 75 179 206 214 195 204 182 183 206 77 96 54 24 17 24 52 35 74 51 280 246 176 171 175 275 292 120 176 219 221 229 228 244 250 249 253 255 258 261 264
262 265 257 254 264 270 272 274 277 276 270 290 314 320 13 46 73 157 234 256 28 289 84 96 336 47 82 113 276 289 267 297 16 146 159 107 164 195 96 355 49 55 320 294 277 272 262 235 223 213 200 168 122 161 283 65 149 88 108 80 15 329 1 28 351 57 203 262 225 177 177 175 234 264 133 249 260 231 216 220 238 245 249 254 254 257 260 264
261 264 258 256 266 269 267 268 271 266 262 273 282 267 117 53 214 213 245 1 351 248 105 99 82 90 96 72 259 243 182 270 215 152 173 152 154 190 196 205 175 39 304 255 272 304 281 233 224 206 185 177 169 211 306 355 78 124 122 132 304 302 336 352 310 127 221 256 233 185 177 197 241 257 275 275 276 255 222 217 233 238 246 254 256 256 257 263
258 257 254 253 257 260 263 266 267 265 262 257 248 161 105 175 236 220 213 304 246 202 113 113 123 146 142 104 263 228 161 245 201 156 181 130 153 244 253 228 169 162 263 226 304 316 291 267 205 134 229 198 175 180 237 275 184 168 156 157 174 215 247 254 264 267 257 264 258 188 167 239 277 279 235 241 259 266 250 234 241 245 251 260 264 265 262 262
257 250 245 246 248 251 256 259 259 262 257 234 209 117 113 212 239 48 165 220 256 25 78 93 87 144 154 183 235 192 179 259 163 139 187 114 154 257 259 240 198 184 223 217 292 231 265 290 197 152 221 187 179 208 215 187 167 193 166 144 181 191 188 202 219 250 258 276 296 220 173 227 269 269 228 228 256 280 277 265 259 257 259 262 266 266 263 261
257 250 243 241 240 239 244 247 245 250 237 198 145 102 184 222 242 58 205 234 286 352 332 341 59 97 254 239 244 195 195 255 98 114 181 156 190 226 215 219 205 190 161 207 258 172 231 275 249 184 179 160 181 220 212 149 61 232 132 118 224 206 173 211 240 240 247 306 301 238 218 236 250 263 253 254 284 278 269 268 265 261 263 261 259 260 260 262
257 250 237 235 235 233 237 237 236 242 220 172 118 205 219 231 211 176 212 238 59 23 335 331 26 212 293 293 301 306 162 198 165 117 203 204 213 221 216 223 198 184 180 192 224 216 242 269 267 244 218 188 194 207 185 163 190 221 132 175 230 160 149 221 260 268 263 265 263 252 258 275 306 286 277 340 322 297 287 288 279 276 279 275 269 266 265 265
261 251 241 237 234 233 233 229 230 230 207 172 164 220 213 233 207 190 195 116 182 20 29 335 305 161 299 312 285 281 39 236 207 149 197 228 233 211 207 238 207 191 205 220 237 246 254 268 260 249 257 257 229 139 200 190 158 134 183 212 197 65 127 187 243 295 263 254 261 266 268 279 307 285 303 349 327 309 312 316 313 305 298 286 280 280 275 272
266 260 257 253 248 237 224 221 224 216 196 175 220 225 208 218 203 190 188 169 193 182 127 224 249 193 208 248 267 253 271 284 173 149 201 213 226 204 187 230 220 187 212 227 257 287 279 275 269 270 281 308 21 78 286 273 165 150 201 207 125 165 225 178 183 213 237 248 250 250 263 274 261 252 282 301 282 277 293 318 332 328 325 316 314 313 301 284
257 255 261 264 255 233 213 210 211 201 183 174 229 224 208 207 208 201 203 201 161 143 203 219 224 240 218 214 232 240 228 226 189 227 236 218 237 216 180 190 208 174 151 140 205 244 140 262 261 279 343 343 8 190 225 259 282 349 320 319 167 196 190 186 189 171 218 246 253 243 252 268 255 227 242 252 233 235 271 338 346 323 346 358 350 340 319 289
237 241 257 256 231 204 199 201 198 187 175 216 220 216 204 214 239 227 213 207 176 180 218 211 208 234 233 219 224 219 220 218 204 220 228 232 265 273 255 226 187 201 130 96 210 239 149 267 262 298 330 305 288 218 196 199 210 234 247 254 261 243 213 253 232 160 199 240 253 251 246 259 268 229 223 246 232 214 236 328 313 291 330 8 9 356 331 303
226 240 256 234 198 182 185 187 186 183 204 243 223 225 229 226 244 235 220 217 217 221 220 196 208 224 229 236 233 205 205 212 200 205 217 227 232 259 259 219 182 188 179 121 190 198 135 275 271 306 293 273 271 239 188 199 220 208 219 232 233 230 243 271 251 210 202 231 245 258 256 253 273 266 233 232 228 219 228 242 258 267 282 327 352 351 320 291
215 234 244 218 200 187 181 177 186 203 209 223 227 221 215 226 238 237 226 215 211 222 224 216 222 221 217 235 234 207 200 208 202 206 218 219 212 216 228 210 198 203 216 231 230 184 147 155 228 254 252 261 283 280 234 223 239 239 231 229 233 225 216 236 244 233 230 241 241 256 256 234 244 260 256 244 242 249 254 244 238 264 277 296 319 319 292 262
213 227 226 215 207 195 185 182 218 207 209 236 233 221 210 219 236 243 232 209 201 210 216 213 219 222 220 224 228 220 209 213 211 211 222 228 216 218 227 233 240 246 235 272 258 189 151 138 219 243 250 253 272 282 272 234 212 243 247 220 224 231 225 231 241 244 246 246 241 253 255 226 218 251 262 272 276 271 261 252 242 265 283 293 299 300 294 278
223 231 224 221 214 200 192 200 217 210 228 234 232 233 228 225 231 241 236 193 189 193 206 218 214 221 225 218 221 218 208 219 225 222 224 218 209 221 229 239 249 250 211 221 221 193 199 186 203 238 266 259 253 272 271 242 193 220 228 211 222 230 236 247 253 241 241 237 236 248 256 239 229 252 270 284 282 274 261 256 250 260 282 292 295 297 298 291
233 241 233 222 208 203 209 222 222 218 217 225 236 232 232 238 234 239 243 230 216 206 204 234 223 223 222 216 229 225 214 228 244 241 232 225 240 236 230 235 240 234 231 233 216 190 226 208 188 230 247 249 246 240 244 239 206 211 212 214 225 223 228 245 255 249 244 236 234 244 256 253 250 262 273 275 274 272 269 265 264 270 280 287 291 292 293 291
200 239 239 216 206 211 224 229 229 230 207 222 236 220 225 240 241 238 238 240 238 231 232 255 252 256 235 215 238 242 232 240 246 245 247 242 264 270 231 232 233 232 241 242 222 195 243 213 211 231 237 241 248 247 244 245 232 243 248 244 243 228 217 229 240 240 247 250 245 244 257 262 261 265 269 268 268 272 275 276 276 278 280 283 283 282 282 283
193 238 216 194 210 221 233 233 229 225 204 210 208 199 224 232 241 238 224 223 231 225 227 245 238 238 233 223 238 246 242 246 242 242 251 247 255 274 261 250 238 238 247 243 215 200 240 237 227 236 241 241 249 253 254 254 250 253 258 257 256 246 226 225 236 239 246 261 256 247 255 264 263 259 262 264 267 271 276 284 286 280 279 279 279 279 278 278
204 261 227 193 207 223 233 233 230 232 227 220 211 214 234 236 231 221 214 227 226 207 206 246 232 230 238 240 245 247 242 244 247 246 249 258 284 299 289 284 268 256 257 232 198 196 203 240 236 242 246 243 245 249 250 252 253 252 253 255 255 251 245 243 245 246 243 247 253 252 253 258 257 252 254 260 266 271 278 284 286 285 284 282 280 280 280 280
224 273 258 249 259 255 269 289 240 240 237 236 226 219 234 244 240 230 218 238 239 208 210 231 236 241 262 269 259 256 253 254 261 259 274 336 314 317 312 305 311 315 315 294 228 213 203 233 237 241 248 246 241 244 245 247 251 252 249 248 249 251 251 249 250 253 250 251 256 257 255 257 257 255 255 258 263 270 275 279 281 283 283 283 283 285 285 286
237 259 285 293 283 271 279 297 328 278 244 242 243 225 229 241 245 245 226 205 229 233 215 226 315 6 331 262 226 246 255 235 189 258 334 3 329 324 347 302 324 344 336 317 287 259 240 248 250 251 256 249 242 243 241 239 242 246 247 247 248 250 251 251 253 254 254 256 257 256 257 259 258 257 256 256 260 266 272 276 277 278 280 284 292 303 311 314
244 249 287 303 283 266 270 265 244 259 244 230 226 220 224 228 235 260 260 220 222 207 94 61 8 353 226 241 254 241 229 179 196 234 247 253 265 270 267 266 291 317 313 295 287 290 280 279 278 273 268 255 246 247 248 246 243 243 245 245 245 245 244 245 245 244 247 252 256 258 260 258 259 261 261 264 267 269 272 276 278 283 295 312 335 354 360 356
254 255 258 268 270 262 264 299 200 225 237 239 235 253 252 252 1 33 332 245 198 137 67 41 360 330 311 288 290 313 329 295 274 272 268 255 251 253 251 250 249 250 270 287 283 259 249 265 277 274 269 267 259 256 261 261 250 239 237 238 240 243 244 245 245 246 247 248 253 259 261 275 304 323 328 321 316 307 298 303 319 336 352 6 11 11 6 0
Height
1563 1563 1562 1562 1561 1561 1560 1560 1560 1559 1559 1558 1558 1557 1556 1556 1555 1555 1554 1554 1553 1552 1552 1551 1550 1550 1549 1548 1547 1547 1546 1545 1545 1543 1542 1542 1543 1543 1543 1543 1543 1543 1543 1544 1543 1543 1543 1543 1544 1544 1544 1544 1544 1544 1544 1544 1545 1546 1548 1551 1550 1550 1546 1538 1535 1533 1531 1529 1527 1525 1525 1525 1524 1522 1521 1521 1519 1518 1518 1517 1517 1517 1516 1515 1515 1515 1515 1516
1562 1562 1561 1561 1561 1560 1560 1559 1559 1559 1558 1558 1557 1557 1556 1556 1555 1554 1554 1553 1553 1552 1551 1550 1550 1549 1548 1547 1547 1546 1544 1544 1543 1542 1541 1540 1541 1541 1541 1542 1542 1542 1542 1543 1543 1543 1543 1543 1543 1543 1543 1543 1543 1543 1544 1543 1544 1544 1547 1550 1546 1543 1537 1531 1530 1528 1528 1528 1526 1525 1524 1524 1523 1521 1521 1520 1517 1517 1516 1514 1515 1515 1514 1513 1513 1513 1514 1514
1561 1561 1561 1560 1560 1559 1559 1559 1559 1558 1558 1557 1557 1556 1556 1555 1555 1554 1554 1553 1552 1551 1551 1550 1549 1548 1548 1547 1546 1545 1544 1542 1541 1539 1539 1539 1539 1539 1540 1540 1541 1541 1541 1541 1542 1542 1542 1542 1542 1542 1543 1542 1542 1543 1542 1543 1543 1542 1545 1547 1540 1535 1532 1528 1528 1526 1526 1526 1525 1524 1523 1523 1521 1520 1520 1518 1516 1515 1512 1511 1512 1512 1511 1511 1511 1511 1512 1512
1561 1560 1560 1559 1559 1559 1558 1558 1558 1557 1557 1556 1556 1556 1555 1555 1554 1554 1553 1552 1552 1551 1550 1549 1549 1548 1547 1546 1545 1544 1543 1541 1539 1538 1538 1538 1538 1538 1538 1538 1539 1540 1540 1540 1541 1542 1542 1542 1542 1541 1542 1541 1541 1542 1541 1541 1541 1540 1541 1540 1534 1532 1532 1527 1526 1525 1525 1525 1524 1523 1523 1522 1520 1520 1519 1517 1517 1510 1505 1506 1508 1509 1508 1508 1509 1509 1509 1509
1560 1559 1559 1558 1558 1558 1557 1557 1557 1556 1556 1555 1555 1555 1554 1554 1553 1553 1552 1551 1551 1550 1549 1549 1548 1547 1546 1546 1545 1543 1543 1542 1538 1538 1538 1537 1537 1537 1537 1537 1537 1538 1539 1539 1540 1540 1540 1540 1540 1541 1541 1540 1540 1540 1539 1537 1538 1538 1535 1533 1530 1531 1530 1524 1524 1525 1524 1524 1523 1523 1522 1520 1518 1518 1516 1517 1516 1504 1497 1503 1505 1505 1507 1507 1507 1507 1507 1506
1559 1558 1558 1557 1557 1557 1556 1556 1556 1555 1555 1554 1554 1553 1553 1553 1552 1552 1551 1550 1549 1549 1548 1548 1547 1546 1546 1545 1544 1543 1543 1542 1538 1537 1537 1536 1536 1536 1536 1536 1536 1537 1537 1538 1538 1539 1539 1539 1539 1539 1539 1538 1539 1538 1536 1535 1537 1536 1532 1529 1528 1530 1528 1523 1523 1524 1523 1523 1522 1522 1520 1519 1518 1516 1514 1514 1509 1497 1495 1502 1503 1503 1505 1505 1504 1504 1503 1503
1557 1557 1557 1556 1556 1556 1555 1555 1554 1554 1554 1553 1553 1552 1552 1551 1551 1550 1550 1549 1548 1547 1547 1546 1546 1545 1544 1543 1542 1541 1541 1540 1537 1537 1536 1536 1536 1535 1535 1535 1535 1535 1535 1536 1537 1537 1537 1538 1537 1537 1538 1537 1537 1535 1534 1534 1535 1535 1530 1527 1527 1527 1525 1521 1522 1522 1522 1522 1520 1521 1519 1517 1516 1514 1513 1509 1500 1493 1495 1500 1501 1501 1501 1502 1501 1500 1500 1499
1556 1556 1556 1555 1555 1554 1554 1554 1553 1553 1552 1552 1551 1551 1551 1550 1550 1549 1548 1548 1547 1546 1545 1545 1544 1544 1543 1542 1541 1540 1538 1537 1536 1536 1535 1535 1535 1534 1534 1533 1534 1534 1534 1535 1535 1536 1536 1535 1536 1536 1536 1535 1534 1533 1533 1533 1533 1532 1528 1525 1525 1524 1522 1520 1521 1520 1520 1519 1519 1520 1517 1514 1514 1514 1510 1503 1494 1490 1494 1497 1497 1498 1498 1498 1497 1496 1497 1496
1555 1554 1554 1554 1554 1553 1553 1552 1552 1551 1551 1550 1550 1550 1549 1549 1548 1547 1547 1546 1545 1545 1544 1544 1543 1542 1542 1541 1540 1538 1535 1534 1535 1535 1534 1534 1533 1533 1533 1532 1532 1532 1532 1533 1533 1534 1534 1534 1534 1534 1534 1533 1533 1531 1531 1533 1531 1527 1526 1524 1523 1522 1520 1519 1518 1517 1518 1517 1517 1518 1514 1510 1512 1514 1506 1495 1489 1488 1492 1493 1492 1494 1494 1493 1493 1493 1493 1492
1553 1553 1553 1552 1552 1552 1551 1551 1550 1550 1549 1549 1549 1548 1548 1547 1547 1546 1545 1544 1544 1543 1542 1542 1542 1541 1541 1539 1540 1536 1532 1533 1534 1533 1533 1533 1532 1531 1531 1531 1530 1530 1530 1530 1531 1531 1531 1532 1532 1533 1533 1532 1531 1530 1530 1531 1528 1525 1525 1524 1522 1521 1519 1516 1514 1513 1515 1515 1514 1515 1511 1506 1510 1514 1502 1487 1486 1488 1489 1489 1489 1491 1490 1489 1489 1489 1489 1488
1551 1551 1551 1550 1550 1550 1549 1549 1548 1548 1547 1547 1547 1546 1546 1545 1545 1544 1543 1542 1542 1541 1540 1540 1540 1540 1539 1538 1537 1533 1530 1532 1532 1531 1531 1531 1530 1530 1529 1529 1529 1528 1528 1528 1528 1529 1529 1531 1531 1532 1532 1531 1530 1529 1528 1527 1526 1525 1525 1523 1519 1520 1518 1512 1510 1511 1513 1512 1509 1511 1508 1505 1509 1510 1496 1483 1484 1488 1487 1486 1486 1487 1486 1485 1486 1485 1485 1484
1548 1548 1548 1548 1548 1547 1547 1547 1546 1546 1545 1545 1545 1544 1544 1543 1542 1542 1541 1540 1540 1539 1538 1538 1538 1537 1537 1535 1531 1529 1529 1530 1530 1530 1529 1529 1528 1528 1527 1527 1527 1527 1527 1526 1527 1527 1528 1529 1529 1530 1530 1529 1529 1528 1527 1525 1526 1525 1524 1525 1518 1518 1517 1505 1504 1509 1510 1509 1505 1509 1510 1504 1504 1498 1486 1482 1484 1486 1487 1484 1483 1483 1482 1482 1482 1482 1482 1480
1546 1546 1545 1545 1545 1544 1544 1544 1543 1543 1542 1542 1542 1542 1541 1541 1540 1539 1538 1538 1537 1537 1536 1536 1535 1535 1535 1531 1526 1526 1528 1527 1527 1527 1527 1527 1526 1525 1525 1525 1525 1526 1525 1525 1526 1526 1527 1527 1527 1528 1528 1528 1527 1526 1525 1523 1525 1524 1525 1527 1520 1523 1517 1498 1500 1507 1506 1507 1503 1508 1511 1500 1493 1487 1481 1483 1484 1485 1486 1483 1480 1479 1477 1477 1478 1478 1477 1476
1544 1544 1543 1543 1543 1542 1541 1541 1541 1540 1540 1539 1539 1539 1538 1538 1537 1536 1536 1535 1535 1534 1533 1533 1533 1533 1532 1528 1524 1524 1525 1525 1524 1524 1525 1525 1523 1523 1522 1523 1523 1523 1524 1524 1525 1525 1526 1526 1527 1527 1527 1527 1526 1525 1525 1524 1525 1524 1526 1526 1525 1529 1516 1495 1501 1507 1503 1504 1501 1506 1511 1498 1485 1480 1480 1482 1483 1484 1483 1479 1477 1476 1474 1474 1473 1473 1472 1472
1542 1542 1542 1541 1541 1540 1540 1539 1538 1537 1537 1536 1536 1536 1535 1535 1534 1533 1533 1532 1532 1531 1530 1530 1530 1530 1529 1524 1522 1522 1521 1522 1521 1522 1522 1522 1521 1520 1520 1521 1521 1521 1522 1522 1523 1524 1524 1526 1526 1526 1526 1525 1525 1525 1526 1526 1524 1524 1527 1526 1525 1528 1516 1499 1500 1502 1501 1501 1501 1504 1507 1497 1483 1475 1476 1480 1480 1481 1479 1476 1474 1473 1472 1471 1470 1469 1468 1466
1540 1540 1540 1539 1539 1538 1538 1537 1536 1535 1534 1534 1533 1533 1532 1531 1531 1530 1529 1529 1529 1528 1527 1527 1527 1528 1527 1522 1520 1519 1518 1518 1519 1520 1519 1519 1518 1518 1518 1519 1519 1519 1520 1520 1521 1522 1523 1525 1526 1526 1526 1524 1524 1525 1527 1530 1527 1524 1526 1524 1522 1523 1521 1511 1499 1496 1497 1498 1500 1501 1497 1492 1482 1472 1473 1477 1477 1477 1476 1473 1471 1470 1469 1468 1467 1466 1463 1462
1538 1538 1538 1537 1537 1536 1535 1535 1534 1533 1532 1531 1530 1530 1529 1528 1527 1527 1526 1525 1525 1524 1524 1524 1524 1525 1523 1519 1517 1516 1515 1516 1516 1516 1516 1516 1516 1516 1517 1517 1517 1518 1518 1519 1520 1521 1523 1524 1525 1525 1525 1523 1523 1525 1532 1537 1529 1521 1522 1523 1521 1520 1522 1516 1501 1494 1496 1497 1497 1496 1493 1486 1477 1471 1472 1474 1474 1474 1472 1470 1468 1467 1466 1465 1465 1462 1459 1458
1537 1537 1536 1536 1535 1534 1534 1533 1532 1531 1530 1529 1528 1527 1526 1525 1524 1523 1522 1522 1522 1522 1523 1522 1523 1525 1520 1515 1514 1513 1513 1514 1513 1514 1514 1514 1514 1514 1515 1515 1516 1516 1518 1519 1519 1520 1523 1523 1524 1525 1524 1523 1521 1525 1531 1528 1518 1515 1518 1520 1520 1518 1518 1515 1505 1496 1495 1496 1495 1495 1493 1485 1477 1473 1471 1470 1472 1471 1469 1468 1466 1464 1463 1462 1461 1458 1456 1454
1536 1535 1535 1534 1533 1533 1532 1531 1530 1529 1528 1527 1526 1525 1523 1522 1521 1520 1519 1519 1519 1520 1520 1518 1519 1520 1516 1511 1512 1512 1511 1511 1510 1511 1511 1511 1512 1512 1513 1514 1514 1515 1517 1518 1518 1519 1520 1522 1525 1526 1523 1518 1516 1521 1520 1511 1507 1511 1514 1516 1517 1515 1512 1509 1503 1495 1496 1496 1493 1493 1489 1482 1479 1475 1470 1468 1468 1468 1466 1465 1464 1461 1460 1458 1457 1454 1452 1450
1535 1534 1534 1533 1533 1532 1531 1530 1529 1528 1526 1525 1524 1523 1521 1521 1519 1518 1517 1516 1515 1514 1514 1513 1512 1511 1510 1509 1510 1510 1509 1508 1507 1508 1508 1508 1510 1511 1512 1513 1513 1515 1515 1516 1517 1517 1517 1520 1523 1519 1514 1510 1510 1513 1511 1506 1509 1512 1514 1515 1514 1513 1508 1502 1497 1493 1496 1495 1488 1487 1483 1476 1475 1472 1468 1467 1465 1464 1463 1462 1460 1457 1456 1454 1452 1449 1447 1445
1534 1534 1533 1533 1532 1532 1531 1530 1528 1527 1526 1523 1523 1522 1521 1520 1519 1518 1516 1513 1512 1510 1509 1508 1508 1506 1505 1506 1506 1506 1505 1504 1504 1505 1505 1506 1507 1509 1509 1510 1513 1514 1513 1514 1516 1515 1516 1518 1517 1509 1504 1505 1507 1508 1508 1509 1511 1512 1514 1514 1512 1513 1505 1496 1496 1492 1494 1495 1485 1482 1480 1472 1470 1468 1466 1466 1464 1460 1458 1457 1454 1451 1452 1449 1447 1444 1440 1439
1534 1533 1533 1532 1531 1531 1530 1529 1528 1527 1525 1523 1522 1521 1520 1520 1519 1519 1517 1513 1508 1507 1506 1504 1503 1501 1500 1502 1501 1502 1503 1501 1500 1501 1502 1504 1504 1505 1505 1507 1510 1510 1511 1514 1514 1515 1517 1515 1509 1504 1503 1506 1507 1507 1509 1510 1511 1513 1515 1516 1513 1511 1503 1493 1492 1490 1491 1493 1484 1480 1478 1467 1464 1464 1462 1463 1460 1454 1452 1452 1448 1446 1447 1445 1442 1439 1435 1434
1533 1532 1532 1531 1531 1531 1529 1528 1527 1526 1525 1524 1522 1521 1520 1519 1518 1517 1517 1514 1506 1502 1501 1498 1497 1495 1495 1496 1496 1498 1498 1496 1496 1497 1500 1501 1500 1502 1503 1504 1507 1508 1511 1511 1510 1512 1512 1508 1503 1502 1505 1507 1507 1507 1509 1509 1511 1512 1513 1515 1511 1507 1504 1494 1488 1486 1488 1490 1483 1481 1475 1462 1460 1460 1457 1458 1453 1448 1448 1447 1444 1443 1442 1440 1437 1435 1433 1430
1532 1531 1531 1530 1530 1530 1529 1528 1527 1526 1525 1523 1522 1521 1519 1518 1517 1516 1515 1512 1505 1499 1495 1492 1492 1491 1491 1491 1492 1494 1494 1494 1495 1495 1496 1497 1499 1502 1501 1502 1506 1508 1508 1506 1505 1502 1499 1498 1499 1501 1504 1506 1506 1506 1509 1511 1509 1504 1507 1512 1505 1499 1500 1494 1489 1487 1487 1486 1483 1483 1473 1453 1452 1455 1449 1450 1448 1444 1446 1444 1441 1439 1436 1434 1432 1431 1429 1424
1530 1530 1529 1529 1530 1528 1528 1528 1526 1526 1524 1522 1522 1520 1519 1518 1517 1515 1514 1512 1504 1496 1491 1490 1489 1488 1488 1489 1490 1491 1492 1493 1492 1492 1494 1494 1496 1499 1499 1501 1503 1503 1503 1504 1505 1500 1494 1496 1498 1499 1502 1503 1504 1504 1507 1510 1503 1495 1499 1502 1493 1491 1494 1493 1493 1494 1493 1489 1484 1486 1478 1447 1436 1446 1445 1443 1446 1443 1443 1442 1438 1434 1431 1430 1427 1424 1421 1418
1527 1528 1528 1528 1528 1528 1528 1526 1526 1526 1523 1523 1522 1519 1519 1518 1517 1516 1516 1515 1506 1492 1489 1489 1488 1487 1487 1487 1488 1490 1493 1491 1488 1490 1491 1492 1494 1495 1497 1499 1498 1498 1499 1502 1503 1497 1492 1493 1494 1495 1498 1498 1503 1505 1503 1504 1501 1492 1491 1491 1487 1489 1493 1494 1496 1498 1496 1491 1484 1487 1488 1460 1434 1438 1444 1441 1443 1441 1439 1439 1433 1428 1425 1424 1422 1417 1414 1413
1525 1526 1526 1527 1527 1527 1527 1526 1526 1525 1523 1523 1521 1520 1520 1518 1519 1517 1515 1518 1506 1487 1486 1488 1487 1487 1487 1488 1488 1489 1492 1488 1486 1488 1489 1490 1492 1493 1495 1495 1496 1495 1495 1500 1501 1492 1488 1490 1491 1491 1494 1498 1503 1501 1494 1497 1500 1491 1484 1485 1485 1487 1490 1492 1496 1498 1494 1490 1487 1484 1490 1481 1447 1430 1437 1436 1437 1438 1435 1433 1427 1422 1421 1418 1416 1412 1409 1409
1523 1524 1524 1525 1525 1525 1526 1525 1525 1524 1524 1523 1521 1521 1519 1518 1521 1516 1520 1525 1503 1482 1485 1487 1486 1488 1487 1488 1489 1488 1489 1487 1487 1489 1488 1490 1491 1492 1494 1493 1494 1494 1493 1498 1496 1486 1484 1489 1489 1490 1495 1498 1495 1488 1486 1493 1495 1485 1482 1485 1486 1487 1488 1491 1492 1495 1497 1493 1488 1482 1487 1490 1453 1420 1428 1432 1433 1437 1431 1425 1421 1417 1416 1413 1411 1408 1407 1406
1521 1521 1521 1522 1522 1523 1524 1524 1524 1524 1524 1522 1521 1521 1518 1520 1520 1516 1528 1528 1495 1480 1488 1487 1486 1489 1488 1490 1490 1489 1490 1488 1489 1490 1489 1491 1491 1492 1494 1492 1494 1494 1493 1495 1490 1484 1485 1487 1488 1490 1493 1490 1484 1482 1484 1488 1486 1482 1485 1486 1487 1489 1488 1492 1490 1490 1498 1492 1484 1482 1484 1487 1454 1418 1426 1435 1432 1433 1425 1419 1417 1413 1412 1409 1408 1406 1404 1403
1519 1518 1519 1519 1519 1520 1521 1521 1523 1523 1522 1522 1521 1520 1519 1520 1519 1524 1534 1519 1490 1485 1490 1486 1488 1490 1489 1492 1492 1490 1491 1490 1490 1491 1491 1492 1492 1492 1494 1493 1494 1493 1493 1494 1489 1485 1485 1486 1488 1487 1484 1481 1480 1484 1485 1485 1484 1483 1487 1485 1487 1490 1488 1493 1492 1491 1497 1487 1477 1476 1474 1482 1461 1425 1427 1432 1426 1425 1420 1417 1416 1412 1410 1407 1405 1404 1401 1401
1516 1516 1516 1516 1516 1518 1518 1518 1521 1522 1522 1521 1521 1520 1520 1520 1522 1530 1524 1501 1488 1490 1488 1487 1491 1491 1491 1493 1492 1491 1491 1490 1490 1491 1491 1492 1493 1494 1494 1494 1494 1495 1495 1493 1488 1483 1483 1485 1484 1478 1476 1478 1480 1483 1484 1486 1485 1484 1487 1486 1488 1491 1491 1496 1496 1497 1500 1484 1469 1466 1466 1476 1460 1426 1423 1424 1418 1421 1419 1417 1414 1410 1409 1405 1402 1401 1399 1399
1513 1513 1513 1513 1514 1515 1515 1515 1518 1520 1520 1520 1521 1520 1520 1525 1526 1521 1506 1493 1491 1490 1485 1489 1492 1490 1493 1494 1492 1491 1491 1490 1489 1490 1490 1492 1494 1493 1494 1492 1492 1495 1493 1490 1487 1482 1478 1476 1474 1472 1473 1475 1477 1481 1485 1485 1485 1485 1488 1489 1494 1499 1498 1499 1499 1499 1497 1479 1464 1465 1468 1467 1442 1417 1420 1418 1411 1414 1413 1413 1411 1408 1407 1402 1399 1398 1396 1397
1509 1510 1510 1511 1511 1511 1512 1513 1515 1517 1517 1518 1520 1519 1523 1530 1520 1503 1497 1496 1491 1485 1484 1489 1489 1489 1492 1492 1490 1490 1491 1489 1488 1489 1490 1492 1494 1492 1492 1491 1490 1492 1490 1490 1489 1483 1473 1466 1469 1474 1472 1470 1472 1477 1482 1479 1479 1483 1483 1485 1494 1500 1502 1503 1500 1496 1488 1471 1463 1469 1471 1458 1432 1415 1413 1409 1405 1407 1406 1409 1408 1405 1405 1401 1399 1398 1396 1395
1506 1507 1507 1507 1508 1509 1509 1511 1512 1513 1515 1517 1518 1520 1525 1525 1508 1495 1497 1494 1487 1483 1485 1488 1488 1490 1490 1488 1488 1487 1488 1487 1486 1489 1490 1492 1495 1491 1488 1489 1489 1490 1490 1493 1490 1485 1480 1469 1464 1468 1466 1465 1467 1467 1467 1467 1472 1477 1474 1476 1483 1484 1487 1491 1487 1481 1472 1462 1465 1474 1467 1446 1427 1414 1407 1404 1405 1404 1404 1404 1404 1403 1402 1399 1397 1395 1392 1392
1503 1504 1504 1504 1505 1506 1507 1509 1510 1511 1513 1514 1517 1522 1522 1511 1498 1497 1497 1491 1488 1487 1486 1486 1486 1488 1488 1486 1486 1484 1484 1485 1486 1489 1490 1491 1493 1489 1484 1484 1485 1487 1490 1493 1488 1484 1485 1471 1459 1462 1461 1461 1462 1458 1459 1465 1471 1473 1472 1475 1475 1470 1471 1474 1469 1464 1465 1466 1466 1467 1455 1433 1418 1409 1404 1407 1406 1402 1402 1400 1399 1399 1396 1394 1392 1390 1389 1389
1501 1501 1501 1501 1501 1503 1504 1506 1507 1509 1510 1512 1518 1520 1513 1500 1494 1496 1493 1489 1491 1490 1489 1488 1485 1486 1487 1484 1484 1483 1482 1484 1486 1487 1489 1491 1490 1486 1483 1480 1480 1482 1484 1485 1481 1478 1480 1469 1459 1461 1460 1457 1458 1456 1457 1463 1467 1472 1475 1471 1465 1462 1464 1468 1468 1462 1468 1472 1458 1447 1440 1427 1418 1410 1403 1405 1404 1399 1400 1398 1398 1397 1394 1394 1391 1387 1388 1387
1498 1498 1498 1497 1498 1500 1501 1503 1505 1507 1508 1510 1513 1510 1502 1494 1492 1491 1489 1489 1492 1491 1492 1494 1488 1487 1489 1486 1484 1483 1482 1483 1485 1485 1486 1488 1485 1480 1479 1476 1475 1476 1474 1475 1475 1472 1473 1467 1457 1456 1458 1457 1459 1459 1458 1457 1460 1467 1469 1462 1459 1463 1463 1468 1474 1470 1470 1471 1453 1438 1432 1427 1426 1418 1404 1403 1403 1398 1397 1398 1398 1396 1393 1393 1389 1386 1386 1385
1496 1496 1494 1493 1495 1497 1498 1501 1502 1503 1505 1507 1505 1499 1494 1491 1488 1487 1488 1488 1490 1490 1493 1496 1491 1486 1488 1489 1485 1483 1484 1485 1485 1485 1485 1485 1480 1474 1473 1472 1472 1473 1471 1473 1476 1472 1473 1473 1461 1454 1457 1459 1459 1461 1460 1457 1457 1459 1459 1456 1459 1464 1463 1464 1471 1471 1469 1466 1453 1441 1432 1425 1425 1418 1406 1404 1403 1399 1398 1397 1396 1394 1392 1391 1388 1385 1384 1384
1494 1494 1491 1489 1492 1494 1495 1498 1498 1500 1503 1504 1501 1494 1489 1487 1485 1485 1486 1486 1488 1490 1491 1492 1490 1486 1486 1487 1485 1484 1486 1486 1485 1485 1485 1483 1477 1469 1467 1469 1470 1471 1470 1472 1475 1472 1473 1477 1469 1457 1459 1462 1461 1460 1459 1457 1458 1459 1459 1459 1458 1457 1456 1456 1458 1458 1458 1457 1450 1443 1435 1424 1416 1409 1405 1403 1400 1400 1398 1395 1395 1395 1392 1390 1388 1386 1386 1385
1493 1492 1489 1487 1489 1491 1493 1495 1496 1498 1498 1495 1493 1489 1485 1484 1484 1483 1484 1485 1486 1488 1488 1488 1488 1487 1484 1483 1483 1483 1484 1485 1484 1485 1484 1480 1475 1469 1466 1467 1468 1469 1469 1470 1473 1471 1471 1475 1472 1463 1461 1462 1460 1458 1456 1456 1459 1462 1462 1461 1460 1456 1453 1452 1451 1447 1448 1450 1447 1444 1439 1424 1409 1403 1401 1398 1397 1398 1396 1393 1394 1395 1392 1390 1389 1388 1388 1388
1492 1490 1486 1486 1488 1489 1491 1493 1493 1493 1492 1489 1486 1484 1483 1483 1482 1481 1482 1483 1483 1483 1484 1484 1484 1484 1482 1481 1481 1481 1483 1484 1482 1482 1480 1476 1475 1472 1466 1463 1464 1465 1466 1467 1469 1470 1472 1475 1476 1473 1468 1463 1457 1455 1456 1457 1457 1459 1460 1457 1455 1453 1452 1454 1451 1441 1438 1441 1439 1439 1437 1424 1408 1400 1397 1395 1395 1393 1392 1391 1392 1393 1392 1391 1389 1389 1389 1389
1489 1487 1484 1485 1486 1486 1487 1489 1489 1488 1488 1484 1481 1481 1482 1481 1480 1479 1479 1480 1481 1480 1481 1482 1481 1481 1480 1479 1479 1479 1480 1479 1478 1478 1476 1471 1470 1468 1462 1460 1461 1461 1463 1464 1464 1464 1468 1474 1478 1475 1469 1464 1458 1453 1455 1456 1455 1456 1456 1452 1450 1448 1448 1450 1447 1438 1435 1434 1430 1432 1432 1422 1408 1397 1390 1390 1390 1388 1388 1388 1389 1390 1389 1388 1388 1388 1388 1388
1485 1483 1482 1483 1484 1483 1485 1486 1485 1484 1483 1480 1478 1478 1479 1480 1478 1477 1477 1478 1479 1479 1479 1479 1478 1478 1477 1476 1476 1476 1476 1475 1472 1471 1470 1467 1464 1461 1458 1458 1460 1461 1463 1464 1463 1461 1464 1470 1472 1468 1464 1461 1457 1452 1450 1451 1453 1454 1451 1449 1447 1443 1439 1439 1438 1435 1435 1433 1430 1431 1426 1415 1404 1393 1386 1387 1388 1387 1387 1385 1386 1388 1386 1386 1386 1386 1387 1387
1482 1481 1481 1482 1482 1483 1482 1481 1480 1480 1479 1478 1478 1478 1478 1478 1477 1475 1474 1475 1476 1476 1476 1475 1474 1474 1473 1472 1472 1472 1473 1472 1466 1462 1463 1463 1459 1455 1454 1456 1457 1459 1462 1461 1459 1458 1460 1462 1463 1465 1464 1459 1456 1454 1448 1445 1447 1447 1443 1442 1441 1438 1436 1435 1435 1436 1435 1430 1429 1428 1419 1408 1399 1392 1389 1389 1386 1383 1382 1381 1384 1386 1384 1384 1384 1383 1384 1384
1481 1480 1479 1480 1481 1480 1477 1475 1474 1475 1476 1477 1477 1477 1477 1476 1473 1471 1472 1473 1473 1472 1472 1471 1471 1470 1469 1469 1469 1468 1468 1468 1465 1461 1460 1459 1456 1452 1452 1453 1455 1456 1457 1457 1456 1457 1457 1455 1456 1461 1460 1454 1449 1445 1439 1435 1438 1438 1436 1434 1433 1434 1434 1433 1434 1436 1432 1424 1420 1417 1410 1401 1396 1393 1393 1389 1383 1378 1374 1376 1382 1383 1381 1381 1382 1382 1382 1381
1481 1480 1478 1477 1478 1476 1474 1472 1472 1472 1473 1475 1475 1474 1475 1473 1470 1469 1470 1471 1470 1470 1470 1470 1469 1469 1468 1467 1468 1467 1465 1465 1465 1462 1460 1458 1455 1451 1450 1451 1452 1451 1451 1453 1455 1457 1458 1454 1451 1450 1447 1442 1436 1430 1427 1429 1432 1434 1432 1429 1428 1431 1432 1432 1432 1430 1423 1418 1413 1409 1404 1399 1397 1397 1394 1386 1380 1376 1370 1372 1379 1380 1379 1378 1378 1378 1379 1379
1479 1477 1475 1475 1475 1473 1471 1470 1470 1469 1470 1472 1471 1469 1468 1469 1468 1468 1468 1467 1466 1466 1467 1467 1466 1467 1466 1465 1466 1465 1463 1463 1463 1461 1459 1456 1453 1450 1448 1449 1450 1449 1449 1452 1453 1456 1458 1453 1447 1444 1440 1436 1432 1427 1426 1428 1429 1429 1428 1425 1424 1426 1428 1431 1428 1421 1418 1418 1411 1403 1402 1400 1398 1398 1392 1383 1379 1375 1371 1372 1375 1376 1376 1375 1374 1374 1375 1375
1476 1474 1471 1472 1472 1470 1467 1466 1466 1467 1467 1468 1467 1464 1464 1465 1466 1466 1465 1463 1463 1464 1465 1464 1463 1462 1461 1462 1463 1463 1461 1459 1459 1457 1457 1458 1457 1456 1452 1449 1448 1448 1450 1451 1450 1452 1452 1448 1443 1440 1436 1434 1432 1428 1426 1425 1424 1423 1424 1422 1421 1421 1422 1423 1419 1413 1415 1413 1403 1399 1401 1397 1394 1392 1387 1381 1377 1374 1372 1372 1371 1370 1371 1370 1370 1371 1372 1371
1473 1472 1470 1470 1470 1467 1465 1465 1465 1466 1466 1466 1464 1462 1461 1461 1461 1461 1462 1462 1461 1461 1461 1461 1461 1461 1463 1464 1465 1464 1461 1459 1459 1457 1459 1463 1464 1463 1460 1454 1449 1448 1451 1452 1450 1448 1445 1440 1436 1433 1430 1428 1427 1426 1424 1424 1422 1420 1419 1417 1417 1416 1415 1413 1410 1408 1408 1403 1396 1397 1396 1390 1387 1386 1382 1377 1375 1373 1372 1371 1369 1367 1366 1365 1366 1368 1370 1369
1472 1472 1471 1470 1469 1466 1465 1465 1466 1466 1466 1466 1463 1460 1459 1459 1459 1458 1458 1459 1460 1459 1458 1460 1462 1464 1466 1465 1466 1466 1463 1463 1465 1464 1464 1466 1464 1463 1464 1459 1453 1451 1453 1454 1452 1449 1445 1437 1430 1429 1427 1422 1421 1420 1419 1419 1418 1415 1413 1413 1414 1413 1410 1408 1407 1405 1403 1398 1393 1394 1393 1387 1383 1378 1373 1371 1371 1372 1371 1369 1367 1365 1365 1365 1367 1369 1371 1370
1471 1471 1471 1471 1468 1465 1464 1464 1465 1466 1465 1463 1460 1458 1457 1458 1457 1457 1457 1456 1457 1458 1459 1461 1463 1463 1463 1463 1463 1463 1462 1463 1466 1465 1464 1465 1463 1462 1462 1459 1457 1456 1454 1452 1451 1450 1449 1442 1435 1434 1428 1419 1417 1417 1414 1414 1415 1414 1413 1411 1408 1405 1401 1399 1398 1395 1394 1392 1390 1391 1390 1383 1375 1371 1369 1369 1371 1373 1373 1370 1368 1368 1369 1371 1372 1373 1373 1372
1471 1471 1471 1471 1469 1464 1464 1464 1464 1464 1461 1457 1457 1457 1456 1456 1457 1458 1458 1455 1454 1456 1458 1460 1461 1460 1460 1460 1460 1460 1461 1461 1461 1460 1460 1460 1458 1457 1457 1456 1456 1457 1455 1451 1450 1449 1447 1443 1439 1436 1427 1417 1415 1415 1414 1414 1412 1408 1406 1401 1396 1393 1391 1390 1389 1387 1386 1387 1387 1386 1384 1380 1379 1380 1381 1380 1380 1379 1378 1376 1375 1375 1375 1375 1375 1375 1374 1372